sat.trackr.live / text

‹ back to catalog

STARLINK-5303

NORAD 55630 · 2023-021C

PAYLOAD ACTIVE UNKNOWN

§ Identity

Operator
Country
US
Launch date
2023-02-17
Launch site
AFWTR
Launch vehicle
Mass (kg)
RCS (m²)

Purposes: comms

External: N2YO · Heavens-Above · Gunter

§ Orbital elements

Epoch: 2026-05-25T01:01:13.317600Z

Period
96.11 min
Inclination
69.9999°
Eccentricity
0.0002524
Mean motion
14.98331491 rev/d
Perigee alt
570.3 km
Apogee alt
573.8 km
Semi-major
6,950.2 km
B*
3.0623e-5
RAAN
12.0052°
Arg perigee
269.9849°
Mean anomaly
90.1021°
Rev number
17,973

§ Raw data

STARLINK-53031 55630U 23021C   26145.04251525  .00000272  00000+0  30623-4 0  99972 55630  69.9999  12.0052 0002524 269.9849  90.1021 14.98331491179735

JSON: /api/v1/satellites/55630 · /tle

For live sub-satellite position, see the globe view (requires WebGL).

§ Visibility from observer

Set your observer location to see the next 7 days of passes ≥ 10°. The values pass through the URL so the page stays shareable.

No JS? Fill the form by hand. The geolocation button needs JavaScript.